Lid_Strength_Index
9 12 14 12 11 11 11 12 13 13 11 12 13 12 10 10 11 11 11 9 10 9 6 5 4 4 3 3 2 2 2 1 1 2 2 3 2 2 1 1 2 2 2 2
11 13 10 9 10 11 12 13 14 12 12 12 14 14 11 11 11 10 10 11 10 10 9 7 5 4 4 4 3 2 1 1 1 1 1 2 2 2 2 1 1 1 2 2
13 12 8 10 11 12 13 14 14 13 13 13 15 16 15 13 13 12 10 9 9 9 9 9 8 6 5 5 5 3 2 1 1 1 2 3 3 3 3 3 2 1 1 1
12 10 10 11 12 11 14 11 12 13 15 17 14 19 16 15 14 14 13 11 10 9 9 11 11 11 10 10 9 4 3 3 2 2 2 2 2 3 2 3 2 2 2 1
13 12 12 12 12 10 13 10 12 13 15 16 16 17 16 15 15 14 12 12 12 11 11 11 12 11 11 11 11 11 10 6 3 2 1 2 2 2 3 3 3 3 3 2
12 10 11 11 11 10 11 13 14 15 15 20 16 17 17 15 14 14 15 15 13 13 13 11 10 9 9 10 11 10 10 10 9 6 3 2 2 2 3 4 4 3 3 2
14 13 11 10 12 11 13 14 21 22 21 20 18 17 15 14 13 14 14 14 14 13 12 11 11 11 8 8 7 7 8 8 8 9 9 5 3 3 3 3 3 4 3 3
18 19 13 11 12 13 15 15 20 25 24 22 18 19 16 14 13 13 12 13 12 12 11 11 11 10 10 10 9 7 6 5 5 7 9 7 4 3 2 3 3 2 3 3
18 18 13 11 11 11 14 16 15 18 24 21 20 17 15 14 13 13 13 12 11 10 10 10 11 10 10 10 10 10 8 6 5 5 5 6 6 6 4 3 3 3 4 4
15 17 14 12 10 11 13 12 17 19 25 25 20 19 18 16 14 13 12 12 11 10 10 10 10 10 10 10 10 10 10 9 8 7 7 6 6 6 6 5 4 4 4 5
13 14 15 12 13 14 13 16 15 16 17 21 22 19 15 14 13 13 12 11 10 10 10 10 10 10 10 10 10 10 10 10 10 9 9 8 8 8 7 7 7 7 7 6
11 14 18 16 13 11 12 13 14 19 19 18 18 19 14 13 12 12 12 11 10 10 9 9 9 9 9 10 10 10 10 10 9 9 9 9 9 8 8 8 8 8 8 7
10 15 19 17 15 13 13 12 12 14 15 17 20 19 13 12 12 12 12 11 10 10 10 10 10 9 9 9 9 9 9 9 9 9 8 8 8 9 8 8 8 8 8 9
8 12 15 18 16 14 14 13 12 13 17 17 17 16 15 13 12 12 11 11 11 11 10 10 9 9 9 9 8 8 8 9 9 9 8 8 8 8 8 8 8 8 8 7
10 16 14 14 13 13 14 13 13 13 14 15 15 15 14 12 12 11 10 10 10 10 10 9 9 9 8 8 8 8 8 8 8 8 8 7 7 7 7 7 7 7 8 8
9 14 13 15 13 12 14 13 13 13 13 14 14 14 12 11 11 11 10 10 10 9 9 9 9 9 8 8 8 8 8 7 8 8 8 8 8 8 8 8 8 8 8 9
11 13 14 17 13 13 16 14 13 13 13 12 14 11 10 10 10 11 10 10 9 9 9 9 9 9 8 8 8 8 8 8 8 8 8 9 9 9 9 9 9 9 9 9
12 13 14 19 16 20 14 14 12 13 13 12 11 11 10 10 9 9 9 9 9 9 9 9 8 8 7 7 7 7 7 8 9 9 9 9 10 10 10 10 10 9 9 9
11 13 19 18 21 17 15 14 14 13 13 12 12 12 11 10 10 10 9 8 8 9 8 8 8 7 7 8 8 8 9 9 10 10 10 11 11 11 11 10 10 10 10 10
12 12 15 18 19 21 15 13 10 11 17 12 11 11 11 11 13 12 9 9 8 8 8 8 8 7 8 9 9 9 10 10 10 10 11 11 11 11 11 11 11 10 10 10
15 16 18 22 21 19 13 12 11 18 16 11 11 10 11 11 10 10 9 9 9 9 9 8 8 8 8 10 10 10 10 10 10 11 11 11 11 11 11 11 11 11 10 10
15 16 17 19 21 21 12 12 14 12 11 11 11 10 10 10 10 10 11 10 10 9 9 9 9 9 9 10 10 10 10 11 12 12 12 12 12 11 11 13 12 12 12 12
16 14 15 14 14 11 11 11 10 10 10 10 11 10 10 10 11 10 10 10 9 9 9 9 9 10 10 11 11 11 11 13 14 15 15 15 14 13 12 13 13 14 13 14
12 11 13 12 11 11 10 10 10 9 10 10 10 11 11 10 10 10 10 10 9 9 9 10 11 11 12 15 15 15 15 15 19 18 16 15 15 15 14 13 13 14 15 14
13 12 13 13 11 11 9 9 9 9 9 10 10 10 10 10 10 10 10 10 9 9 10 11 12 12 12 15 16 20 18 18 17 16 16 16 15 17 16 14 13 13 12 12
13 13 13 14 10 10 10 9 9 10 10 9 10 10 10 10 10 9 10 9 10 10 12 13 12 13 12 16 18 20 21 21 20 17 17 17 17 18 17 17 16 10 9 9